STARLINK-34492

导读

STARLINK-34492是美国SpaceX公司星链计划中的卫星,于2025年6月23日发射。星链计划旨在构建全球卫星互联网星座,为全球偏远地区、海洋空域等提供高速低延迟网络服务。该卫星加入在轨星链卫星集群,进一步扩充星座规模,推动全球互联覆盖能力提升,延续星链项目部署节奏。

Basic Information
目录编号:
64473
目录名称:
STARLINK-34492
国际标识:
2025-133B
轨道中心:
EARTH
卫星名称:
STARLINK-34492
卫星全名:
STARLINK-34492
卫星状态:
在轨 (已飞行355 天)
发射日期:
2025-06-23 UTC
国别 :
美国 (US)
星等 :
--
Orbit Information
数据来源 国际轨道数据
星历时间: 2026-06-13T16:41:46+0800
14小时前
查看轨道信息
半长轴: 6853.399km
偏心率: 0.0001301
轨道倾角: 53.161°
近地点辐角 59.804°
升交点赤经 32.602°
平近点角 300.309°
近地点: 474.37km
远地点: 476.154km
周期: 94.106分钟
每日圈数: 15.301843
Detailed Information
使用方式:
暂无
2D Orbit Map
3D Orbit Map
Orbit Altitude Analysis Chart
Orbit Inclination Analysis Chart
Orbit Comprehensive Analysis Chart
View Comprehensive Chart